Location: NJAA Observatory
(40.6819°N, 74.8979°W)
Time: 18:05:02
(UTC-05:00)

Iridium 56 - Visible Passes

Search period start: 18 December 2014 00:00
Search period end: 28 December 2014 00:00
Orbit: 776 x 779 km, 86.4° (Epoch: 18 December)

Date Brightness Start Highest point End Pass type
(mag) Time Alt. Az. Time Alt. Az. Time Alt. Az.
18 Dec 5.6 06:37:10 10° N 06:42:24 85° E 06:47:36 10° S visible
18 Dec 7.0 17:54:44 10° SE 17:56:48 18° ESE 17:56:48 18° ESE visible
18 Dec 6.8 19:33:49 10° SSW 19:37:22 36° WSW 19:37:22 36° WSW visible
19 Dec 6.7 06:03:51 10° N 06:08:51 46° E 06:13:49 10° SSE visible
19 Dec 7.4 17:24:16 10° E 17:24:39 10° E 17:24:39 10° E visible
19 Dec 5.4 19:00:01 10° S 19:05:13 84° W 19:05:13 84° W visible
20 Dec 7.7 05:30:53 10° NNE 05:35:10 25° ENE 05:39:25 10° SE visible
20 Dec 5.6 18:26:46 10° SSE 18:31:47 53° E 18:33:07 42° NE visible
20 Dec 8.0 20:09:27 10° WSW 20:12:51 17° WNW 20:13:41 17° WNW visible
21 Dec 8.4 04:58:41 10° NE 05:01:21 14° ENE 05:04:00 10° ESE visible
21 Dec 5.5 06:37:25 10° N 06:42:35 67° W 06:47:43 10° S visible
21 Dec 6.3 17:54:04 10° SE 17:58:29 29° E 18:01:04 19° NE visible
21 Dec 7.2 19:34:30 10° SW 19:39:05 31° W 19:41:38 21° NW visible
22 Dec 5.9 06:03:54 10° N 06:09:06 67° E 06:14:16 10° S visible
22 Dec 7.0 17:22:14 10° ESE 17:25:17 16° ENE 17:28:21 10° NE visible
22 Dec 6.0 19:00:21 10° SSW 19:05:27 57° W 19:09:38 16° N visible
23 Dec 7.1 05:30:43 10° NNE 05:35:30 36° E 05:40:16 10° SSE visible
23 Dec 5.4 18:26:46 10° S 18:31:57 78° E 18:37:10 10° N visible
23 Dec 8.5 20:11:23 10° W 20:13:18 12° WNW 20:15:13 10° NW visible
24 Dec 8.0 04:57:58 10° NNE 05:01:46 20° ENE 05:05:33 10° ESE visible
24 Dec 5.8 06:37:46 10° NNW 06:42:43 45° W 06:47:39 10° SSW visible
24 Dec 5.9 17:53:43 10° SSE 17:58:34 41° E 18:03:26 10° NNE visible
24 Dec 7.8 19:35:28 10° SW 19:39:26 22° WNW 19:43:26 10° NNW visible
25 Dec 8.6 04:26:41 10° ENE 04:27:53 11° ENE 04:29:05 10° E visible
25 Dec 5.5 06:04:05 10° N 06:09:19 85° W 06:14:31 10° S visible
25 Dec 6.6 17:21:18 10° SE 17:25:18 23° E 17:29:18 10° NNE visible
25 Dec 6.8 19:00:53 10° SSW 19:05:44 39° W 19:10:37 10° NNW visible
26 Dec 6.3 05:30:41 10° N 05:35:47 52° E 05:40:51 10° SSE visible
26 Dec 5.7 18:26:57 10° S 18:32:08 74° W 18:37:22 10° N visible
27 Dec 7.4 04:57:38 10° NNE 05:02:08 29° E 05:06:36 10° SE visible
27 Dec 6.3 06:38:15 10° NNW 06:42:48 31° W 06:47:20 10° SW visible
27 Dec 5.5 17:53:35 10° SSE 17:58:41 61° E 18:03:49 10° N visible
27 Dec 8.3 19:36:51 10° WSW 19:39:51 15° WNW 19:42:51 10° NW visible
